Newport, AR

8:28 AM CST on February 22, 2018 (GMT -0600)
Newport

Weather History for KM19 - May, 2013

Change the Weather History Date:

Monday, May 6, 2013

  Actual Average (KBVX) Record (KBVX)
Temperature  
Mean Temperature 60 °F -  
Max Temperature 68 °F 77 °F 92 °F (1952)
Min Temperature 53 °F 54 °F 39 °F (1957)
Degree Days  
Heating Degree Days 4    
Growing Degree Days 10 (Base 50)    
Moisture  
Dew Point 54 °F    
Average Humidity 82    
Maximum Humidity 100    
Minimum Humidity 61    
Precipitation  
Precipitation 0.08 in - - ()
Sea Level Pressure  
Sea Level Pressure 29.94 in    
Wind  
Wind Speed 10 mph (NW)    
Max Wind Speed 17 mph    
Max Gust Speed -    
Visibility 10 miles    
Events Rain    
Averages and records for this station are not official NWS values.
T = Trace of Precipitation, MM = Missing Value Source: NWS Daily Summary

Daily Weather History Graph

Daily Weather History Graph

Search for Another Location

Airport or City:

Trip Planner

Search our weather history database for the weather conditions in past years. The results will help you decide how hot, cold, wet, or windy it might be!

Date:

Astronomy

May. 06, 2013 Rise Set
Actual Time 6:07 AM CDT 7:55 PM CDT
Civil Twilight 5:39 AM CDT 8:23 PM CDT
Nautical Twilight 5:06 AM CDT 8:57 PM CDT
Astronomical Twilight 4:30 AM CDT 9:32 PM CDT
Moon 4:03 AM CDT (5/6) 5:01 PM CDT (5/6)
Length of Visible Light 14h 43m
Length of Day
13h 48m
Waning Crescent, 11% of the Moon is Illuminated
May 6
Waning Crescent
May 9
New
May 17
First Quarter
May 24
Full
May 31
Last Quarter

Hourly Weather History & Observations

Time (CDT) Temp. Dew Point Humidity Pressure Visibility Wind Dir Wind Speed Gust Speed Precip Events Conditions
12:56 AM 54.0 °F 52.0 °F 93% 29.92 in 10.0 mi WNW 8.1 mph - N/A   Overcast
1:26 AM 55.4 °F 51.8 °F 88% 29.91 in 10.0 mi WNW 8.1 mph - N/A   Overcast
1:33 AM 55.4 °F 51.8 °F 88% 29.91 in 10.0 mi WNW 10.4 mph - N/A   Overcast
1:40 AM 55.4 °F 51.8 °F 88% 29.90 in 10.0 mi NW 10.4 mph - N/A   Overcast
1:56 AM 54.9 °F 52.0 °F 90% 29.90 in 10.0 mi WNW 12.7 mph - N/A   Overcast
2:56 AM 54.9 °F 52.0 °F 90% 29.90 in 10.0 mi NW 11.5 mph - N/A   Overcast
3:56 AM 55.9 °F 52.9 °F 89% 29.90 in 10.0 mi NW 10.4 mph - N/A   Overcast
4:56 AM 54.9 °F 54.0 °F 97% 29.91 in 8.0 mi NW 9.2 mph - 0.03 in Rain Light Rain
5:56 AM 54.0 °F 54.0 °F 100% 29.92 in 9.0 mi NW 10.4 mph - 0.04 in Rain Light Rain
6:15 AM 53.6 °F 53.6 °F 100% 29.93 in 10.0 mi NW 6.9 mph - 0.00 in Rain Light Rain
6:46 AM 55.4 °F 55.4 °F 100% 29.93 in 10.0 mi North - - 0.01 in Rain Light Rain
6:56 AM 54.9 °F 54.9 °F 100% 29.93 in 10.0 mi NW 9.2 mph - 0.01 in Rain Light Rain
7:56 AM 55.9 °F 54.9 °F 96% 29.94 in 10.0 mi NW 13.8 mph - 0.00 in   Overcast
8:56 AM 57.9 °F 55.9 °F 93% 29.96 in 10.0 mi NW 13.8 mph - 0.00 in   Overcast
9:56 AM 59.9 °F 54.9 °F 83% 29.96 in 10.0 mi NNW 17.3 mph - N/A   Overcast
10:49 AM 60.8 °F 55.4 °F 82% 29.97 in 10.0 mi North 11.5 mph - N/A   Overcast
10:56 AM 61.0 °F 54.9 °F 80% 29.97 in 10.0 mi NNW 11.5 mph - N/A   Overcast
11:04 AM 60.8 °F 55.4 °F 82% 29.97 in 10.0 mi NNW 13.8 mph - N/A   Overcast
11:56 AM 61.0 °F 54.0 °F 78% 29.96 in 10.0 mi North 16.1 mph - N/A   Overcast
12:56 PM 63.9 °F 54.0 °F 70% 29.96 in 10.0 mi North 11.5 mph - N/A   Overcast
1:06 PM 62.6 °F 53.6 °F 72% 29.96 in 10.0 mi NW 12.7 mph - N/A   Overcast
1:28 PM 64.4 °F 53.6 °F 68% 29.96 in 10.0 mi North 13.8 mph - N/A   Overcast
1:56 PM 65.8 °F 52.9 °F 63% 29.96 in 10.0 mi North 12.7 mph - N/A   Mostly Cloudy
2:56 PM 68.9 °F 54.9 °F 61% 29.94 in 10.0 mi North 10.4 mph - N/A   Mostly Cloudy
3:56 PM 66.9 °F 52.9 °F 61% 29.93 in 10.0 mi NW 11.5 mph - N/A   Overcast
4:56 PM 66.9 °F 54.0 °F 63% 29.93 in 10.0 mi NW 9.2 mph - N/A   Overcast
5:32 PM 66.2 °F 53.6 °F 64% 29.93 in 10.0 mi North - - N/A   Overcast
5:56 PM 65.8 °F 55.9 °F 70% 29.93 in 10.0 mi WNW 3.5 mph - N/A   Overcast
6:56 PM 63.9 °F 54.9 °F 72% 29.94 in 10.0 mi North - - N/A   Overcast
7:56 PM 63.9 °F 55.9 °F 75% 29.96 in 10.0 mi North 3.5 mph - N/A   Overcast
8:56 PM 61.9 °F 55.9 °F 81% 29.97 in 10.0 mi Calm Calm - N/A   Overcast
9:56 PM 61.9 °F 55.9 °F 81% 29.99 in 10.0 mi Calm Calm - N/A   Overcast
10:56 PM 61.0 °F 55.9 °F 83% 29.99 in 10.0 mi West 4.6 mph - N/A   Overcast
11:56 PM 59.0 °F 55.9 °F 90% 29.99 in 10.0 mi NNW 5.8 mph - N/A   Overcast